C/2019 V1 ( Borisov )

Japanese version
Home page
Updated on March 26, 2020

---------------------------------------------------------------------

* Profile

Discovery Date November 2, 2019
Magnitude 19.0 mag
Discoverer G. Borisov (MARGO observatory near Nauchnij, Crimea)

* Pictures

* Orbital Elements

Epoch 2020 July 10.0 TT = JDT 2459040.5
T 2020 July 16.57044 TT                                 Rudenko
q   3.0971948            (2000.0)            P               Q
z  +0.0003943      Peri.   51.20060     -0.29078567     -0.38559491
 +/-0.0000212      Node    83.20564     +0.33736678     -0.89773671
e   0.9987788      Incl.   61.86531     +0.89533644     +0.21303843
From 97 observations 2019 Nov. 1-2020 Feb. 26, mean residual 0".7.

* Magnitudes Graph

        m1 = 10.5 + 5 log d + 10.0 log r

---------------------------------------------------------------------

The orbital elements are published on M.P.E.C. 2020-F67.
The magnitudes graphs are made with Comet for Windows.

---------------------------------------------------------------------

Copyright(C) Seiichi Yoshida (comet@aerith.net). All rights reserved.